{"data":{"norad_id":64190,"intl_designator":"2025-113W","name":"STARLINK-34214","alt_names":[],"object_type":"PAYLOAD","status":"ACTIVE","operator":null,"country":"US","launch_date":"2025-05-28","launch_site_code":"AFETR","launch_vehicle":null,"mission":null,"orbit_class":"UNKNOWN","rcs_meters":null,"size_class":null,"mass_kg":null,"dimensions":null,"purposes":["comms"],"wikipedia_slug":null,"has_3d_model":false,"image_url":null,"decayed_at":null,"tle_current":{"epoch":"2026-05-25T02:46:16.836096Z","epoch_age_seconds":65096,"freshness":"FRESH","line1":"1 64190U 25113W   26145.11547264  .00011309  00000+0  39331-3 0  9995","line2":"2 64190  53.1607  96.3200 0001081 100.4879 259.6243 15.30204472 56766","mean_motion":15.30204472,"eccentricity":0.0001081,"inclination_deg":53.1607,"raan_deg":96.32,"arg_perigee_deg":100.4879,"mean_anomaly_deg":259.6243,"bstar":0.00039331,"rev_number":5676,"period_min":94.105070684959,"perigee_km":474.46087095063,"apogee_km":475.94256278122,"semimajor_km":6853.3387168659,"source":"CELESTRAK","updated_at":"2026-05-25T13:38:20.314147Z"}}}